Weather reports worldwide

Advertisment
Granada/Aeropuerto, Spain (8419): temperature & dewpoint: 12.01.2018 07:00:00 - 18.01.2018 07:00:00 (CET)Granada/Aeropuerto, Spain (8419): wind speed: 12.01.2018 07:00:00 - 18.01.2018 07:00:00 (CET)Granada/Aeropuerto, Spain (8419): wind direction: 12.01.2018 07:00:00 - 18.01.2018 07:00:00 (CET)Granada/Aeropuerto, Spain (8419): reduced air pressure: 12.01.2018 07:00:00 - 18.01.2018 07:00:00 (CET)Granada/Aeropuerto, Spain (8419): visibility: 12.01.2018 07:00:00 - 18.01.2018 07:00:00 (CET)
Date & Time tt [°C] td [°C] ff [km/h] ff [kn] dd ppp [hPa] vv [km]
18.01.2018 07:00:00 - - - - - - -
18.01.2018 06:00:00 0,8 0,2 2 1 SW 1025,1 24
18.01.2018 05:00:00 0,5 -0,2 4 2 S 1025,2 15
18.01.2018 04:00:00 1,3 0,4 4 2 SE 1025,3 17
18.01.2018 03:00:00 1,7 0,7 0 0 N 1025,6 14
18.01.2018 02:00:00 2,9 1,9 8 4 SSW 1025,4 22
18.01.2018 01:00:00 2,8 1,5 0 0 N 1025,4 15
18.01.2018 00:00:00 5,0 2,9 5 3 SSW 1024,7 30
17.01.2018 23:00:00 5,1 2,9 4 2 S 1024,9 24
17.01.2018 22:00:00 6,1 3,6 4 2 SSW 1024,4 25
17.01.2018 21:00:00 7,7 3,9 4 2 S 1023,6 26
17.01.2018 20:00:00 10,5 5,8 0 0 N 1022,7 17
17.01.2018 19:00:00 10,4 6,9 5 3 SSW 1022,0 15
17.01.2018 18:00:00 17,3 7,9 0 0 N 1020,1 13
17.01.2018 17:00:00 17,9 7,0 0 0 N 1020,0 15
17.01.2018 16:00:00 16,9 7,1 4 2 NNE 1020,2 30
17.01.2018 15:00:00 15,8 7,0 0 0 N 1020,9 23
17.01.2018 14:00:00 14,1 6,7 0 0 N 1022,3 25
17.01.2018 13:00:00 11,3 5,6 0 0 N 1024,3 20
17.01.2018 12:00:00 9,2 4,3 0 0 N 1025,9 21
17.01.2018 11:00:00 4,4 2,5 4 2 N 1027,9 11
17.01.2018 10:00:00 1,0 0,1 0 0 N 1028,6 9
17.01.2018 09:00:00 -1,7 -2,4 0 0 N 1028,7 8
17.01.2018 08:00:00 -1,8 -2,5 0 0 N 1029,0 9
17.01.2018 07:00:00 -1,3 -1,9 0 0 N 1028,9 9
17.01.2018 06:00:00 -1,0 -1,7 0 0 N 1028,7 12
17.01.2018 05:00:00 -0,2 -0,6 0 0 N 1028,6 9
17.01.2018 04:00:00 0,0 -0,6 0 0 N 1029,1 12
17.01.2018 03:00:00 0,5 -0,1 0 0 N 1029,3 16
17.01.2018 02:00:00 1,1 0,5 0 0 N 1029,5 11
17.01.2018 01:00:00 1,3 0,4 0 0 N 1030,1 13
17.01.2018 00:00:00 2,7 1,8 0 0 N 1030,1 19
16.01.2018 23:00:00 2,8 1,6 0 0 N 1029,7 14
16.01.2018 22:00:00 4,5 2,5 4 2 SSW 1029,3 25
16.01.2018 21:00:00 5,6 3,3 0 0 N 1029,1 25
16.01.2018 20:00:00 7,6 3,6 11 6 SSW 1028,2 30
16.01.2018 19:00:00 8,0 4,2 8 4 SSE 1027,9 30
16.01.2018 18:00:00 14,1 2,7 0 0 N 1026,4 30
16.01.2018 17:00:00 14,1 2,4 2 1 NNW 1026,8 30
16.01.2018 16:00:00 13,8 2,0 4 2 NNW 1027,2 30
16.01.2018 15:00:00 13,6 2,7 0 0 N 1028,1 30
16.01.2018 14:00:00 11,6 2,4 0 0 N 1029,7 30
16.01.2018 13:00:00 8,7 3,0 0 0 N 1031,7 30
16.01.2018 12:00:00 6,3 2,0 0 0 N 1033,3 29
16.01.2018 11:00:00 4,0 1,0 2 1 SE 1034,1 16
16.01.2018 10:00:00 1,3 0,0 0 0 N 1034,5 25
16.01.2018 09:00:00 -2,1 -2,8 0 0 N 1034,7 13
16.01.2018 08:00:00 -2,3 -2,9 2 1 S 1034,6 15
16.01.2018 07:00:00 -2,2 -2,9 2 1 WSW 1034,0 20
16.01.2018 06:00:00 -2,0 -2,6 0 0 N 1033,6 14
16.01.2018 05:00:00 -1,2 -1,8 5 3 SW 1033,4 15
16.01.2018 04:00:00 -1,3 -1,9 0 0 N 1033,8 13
16.01.2018 03:00:00 -0,8 -1,4 0 0 N 1033,7 13
16.01.2018 02:00:00 -0,4 -1,1 4 2 S 1033,6 20
16.01.2018 01:00:00 0,1 -0,8 0 0 N 1033,7 18
16.01.2018 00:00:00 0,9 0,1 0 0 N 1033,7 25
15.01.2018 23:00:00 2,1 0,6 4 2 SSW 1032,9 30
15.01.2018 22:00:00 2,9 0,9 0 0 N 1032,1 30
15.01.2018 21:00:00 4,3 1,5 0 0 N 1031,3 30
15.01.2018 20:00:00 5,7 1,6 4 2 WNW 1029,4 30
15.01.2018 19:00:00 6,0 2,6 0 0 N 1028,2 30
15.01.2018 18:00:00 10,3 2,5 5 3 NNE 1026,6 30
15.01.2018 17:00:00 11,9 1,8 2 1 NW 1025,7 30
15.01.2018 16:00:00 11,7 2,3 4 2 NNE 1025,2 30
15.01.2018 15:00:00 11,7 2,9 0 0 N 1024,8 30
15.01.2018 14:00:00 9,5 2,8 4 2 N 1025,7 30
15.01.2018 13:00:00 9,2 2,8 4 2 SE 1026,2 30
15.01.2018 12:00:00 7,7 2,3 0 0 N 1027,2 30
15.01.2018 11:00:00 5,8 2,1 2 1 ESE 1026,8 30
15.01.2018 10:00:00 3,6 2,2 0 0 N 1026,6 30
15.01.2018 09:00:00 0,4 -0,3 5 3 SSW 1026,7 23
15.01.2018 08:00:00 0,0 -0,6 0 0 N 1025,8 30
15.01.2018 07:00:00 0,0 -0,6 8 4 SW 1025,1 30
15.01.2018 06:00:00 0,4 -0,2 11 6 SW 1024,0 23
15.01.2018 05:00:00 1,6 0,1 2 1 W 1023,3 30
15.01.2018 04:00:00 2,1 1,1 2 1 SSW 1023,4 30
15.01.2018 03:00:00 1,6 0,8 11 6 WSW 1023,3 30
15.01.2018 02:00:00 2,1 1,4 4 2 W 1023,5 30
15.01.2018 01:00:00 2,0 1,7 4 2 WSW 1023,7 26
15.01.2018 00:00:00 2,5 2,1 4 2 S 1023,2 12
14.01.2018 23:00:00 4,2 3,8 0 0 N 1022,3 14
14.01.2018 22:00:00 5,0 4,4 2 1 SW 1021,6 20
14.01.2018 21:00:00 4,9 4,3 2 1 WSW 1021,3 30
14.01.2018 20:00:00 5,4 4,7 0 0 N 1020,5 10
14.01.2018 19:00:00 5,6 4,6 2 1 N 1019,9 8
14.01.2018 18:00:00 6,1 4,0 0 0 N 1019,4 30
14.01.2018 17:00:00 6,2 4,2 4 2 WNW 1018,9 30
14.01.2018 16:00:00 6,1 4,9 2 1 SW 1018,6 12
14.01.2018 15:00:00 6,7 5,5 15 8 WNW 1018,9 8
14.01.2018 14:00:00 7,5 5,5 0 0 N 1018,7 12
14.01.2018 13:00:00 7,2 5,2 0 0 N 1019,8 6
14.01.2018 12:00:00 6,2 4,5 0 0 N 1021,2 10
14.01.2018 11:00:00 4,8 3,9 0 0 N 1022,0 8
14.01.2018 10:00:00 3,8 3,5 0 0 N 1022,1 4,0
14.01.2018 09:00:00 2,3 2,2 2 1 SW 1022,6 3,3
14.01.2018 08:00:00 2,1 2,0 0 0 N 1022,6 3,5
14.01.2018 07:00:00 2,1 2,0 2 1 SSE 1022,5 3,0
14.01.2018 06:00:00 1,2 1,1 2 1 SSW 1023,1 -
14.01.2018 05:00:00 0,6 0,3 0 0 N 1023,5 3,9
14.01.2018 04:00:00 0,8 0,5 4 2 SSE 1024,0 4,4
14.01.2018 03:00:00 1,1 0,8 4 2 S 1023,8 -
14.01.2018 02:00:00 2,0 1,6 0 0 N 1023,8 4,1
14.01.2018 01:00:00 2,5 2,0 4 2 S 1024,3 7
14.01.2018 00:00:00 3,5 2,9 4 2 SE 1024,4 7
13.01.2018 23:00:00 3,5 3,1 4 2 SSE 1024,3 18
13.01.2018 22:00:00 3,4 2,7 4 2 S 1023,9 7
13.01.2018 21:00:00 5,0 3,6 4 2 NW 1023,1 11
13.01.2018 20:00:00 6,2 3,9 0 0 N 1022,7 26
13.01.2018 19:00:00 6,3 4,5 0 0 N 1022,2 17
13.01.2018 18:00:00 7,5 4,1 4 2 NE 1021,3 28
13.01.2018 17:00:00 8,1 4,5 11 6 WNW 1021,2 30
13.01.2018 16:00:00 10,0 1,4 0 0 N 1019,8 15
13.01.2018 15:00:00 10,5 -0,4 9 5 WNW 1019,5 30
13.01.2018 14:00:00 8,8 1,5 4 2 W 1020,4 15
13.01.2018 13:00:00 5,8 1,6 11 6 WNW 1021,8 15
13.01.2018 12:00:00 4,9 0,7 2 1 W 1022,6 16
13.01.2018 11:00:00 3,6 1,0 0 0 N 1023,1 19
13.01.2018 10:00:00 1,4 0,2 4 2 E 1023,7 15
13.01.2018 09:00:00 -0,6 -1,4 0 0 N 1024,5 13
13.01.2018 08:00:00 -0,7 -1,4 0 0 N 1023,8 13
13.01.2018 07:00:00 -0,9 -1,7 4 2 S 1023,8 14
13.01.2018 06:00:00 -0,6 -1,4 4 2 W 1023,7 14
13.01.2018 05:00:00 0,5 -0,4 5 3 SW 1023,6 17
13.01.2018 04:00:00 -0,2 -1,0 0 0 N 1024,6 13
13.01.2018 03:00:00 -0,2 -1,0 0 0 N 1025,2 13
13.01.2018 02:00:00 -0,5 -1,4 4 2 W 1025,5 18
13.01.2018 01:00:00 0,4 -0,6 0 0 N 1026,2 30
13.01.2018 00:00:00 0,7 -0,3 0 0 N 1026,5 18
12.01.2018 23:00:00 2,4 0,8 0 0 N 1026,5 22
12.01.2018 22:00:00 3,3 1,4 4 2 SW 1026,3 30
12.01.2018 21:00:00 3,3 1,5 2 1 S 1025,9 25
12.01.2018 20:00:00 4,7 1,5 0 0 N 1025,7 23
12.01.2018 19:00:00 5,7 1,8 5 3 S 1025,1 30
12.01.2018 18:00:00 11,8 -2,8 0 0 N 1023,7 30
12.01.2018 17:00:00 12,4 -3,3 0 0 N 1023,6 30
12.01.2018 16:00:00 11,8 -2,6 0 0 N 1023,7 30
12.01.2018 15:00:00 11,7 0,1 0 0 N 1023,6 30
12.01.2018 14:00:00 10,0 -0,3 0 0 N 1025,0 30
12.01.2018 13:00:00 8,1 1,6 2 1 N 1027,2 30
12.01.2018 12:00:00 5,9 1,8 2 1 NNE 1028,8 22
12.01.2018 11:00:00 3,1 0,9 0 0 N 1029,9 17
12.01.2018 10:00:00 1,5 0,3 0 0 N 1029,9 30
12.01.2018 09:00:00 -1,7 -2,2 2 1 WNW 1030,1 16
12.01.2018 08:00:00 -1,9 -2,5 2 1 ESE 1029,9 30
12.01.2018 07:00:00 -1,6 -2,2 5 3 ESE 1029,5 25

tt = temperature
td = dewpoint
ff = wind speed
dd = wind direction
ppp = reduced air pressure
vv = visibility

Next stations